| time (UTC) | temp F | wind direction | speed MPH | gust MPH | rain 1hr in | rain 24hr in | rain mn in | humidity % | barometer mb |
| 20260510074851 | 55 | 159 | 0.0 | 0.0 | 0.01 | 0.06 | 0.03 | 81 | 1011.2 |
| 20260510073951 | 55 | 156 | 0.0 | 2.0 | 0.01 | 0.07 | 0.03 | 82 | 1011.3 |
| 20260510073050 | 56 | 317 | 0.0 | 0.0 | 0.00 | 0.07 | 0.02 | 84 | 1011.2 |
| 20260510072149 | 56 | 293 | 0.0 | 1.0 | 0.00 | 0.08 | 0.02 | 86 | 1011.2 |
| 20260510071248 | 57 | 293 | 0.0 | 0.0 | 0.00 | 0.08 | 0.02 | 87 | 1010.9 |
| 20260510070350 | 57 | 293 | 0.0 | 0.0 | 0.00 | 0.09 | 0.02 | 87 | 1010.8 |
| 20260510065448 | 57 | 293 | 0.0 | 0.0 | 0.00 | 0.10 | 0.02 | 86 | 1010.7 |
| 20260510064549 | 58 | 293 | 0.0 | 1.0 | 0.00 | 0.10 | 0.02 | 85 | 1010.6 |
| 20260510063649 | 58 | 293 | 0.0 | 1.0 | 0.00 | 0.11 | 0.02 | 85 | 1010.8 |
| 20260510062750 | 58 | 293 | 0.0 | 1.0 | 0.00 | 0.12 | 0.02 | 84 | 1010.7 |
| 20260510061848 | 59 | 293 | 0.0 | 1.0 | 0.00 | 0.13 | 0.02 | 84 | 1010.6 |
| 20260510061020 | 59 | 293 | 0.0 | 0.0 | 0.00 | 0.17 | 0.02 | 84 | 1010.6 |
| 20260510060949 | 59 | 293 | 0.0 | 0.0 | 0.00 | 0.17 | 0.02 | 84 | 1010.6 |
| 20260510060049 | 59 | 289 | 0.0 | 1.0 | 0.00 | 0.18 | 0.02 | 84 | 1010.7 |
| 20260510055149 | 59 | 323 | 0.0 | 1.0 | 0.00 | 0.20 | 0.02 | 85 | 1010.7 |
| 20260510054250 | 60 | 323 | 0.0 | 0.0 | 0.00 | 0.22 | 0.02 | 83 | 1010.7 |
| 20260510053348 | 60 | 325 | 0.0 | 1.0 | 0.02 | 0.26 | 0.02 | 83 | 1010.5 |
| 20260510052448 | 60 | 300 | 1.0 | 1.0 | 0.02 | 0.28 | 0.02 | 83 | 1010.3 |
| 20260510051549 | 60 | 245 | 0.0 | 3.0 | 0.02 | 0.32 | 0.02 | 83 | 1010.3 |
| 20260510050649 | 60 | 291 | 2.0 | 3.0 | 0.02 | 0.34 | 0.02 | 82 | 1010.5 |
| 20260510045750 | 61 | 299 | 2.0 | 3.0 | 0.00 | 0.35 | 0.02 | 81 | 1010.3 |
| 20260510044850 | 61 | 296 | 5.0 | 5.0 | 0.00 | 0.38 | 0.02 | 80 | 1010.3 |
| 20260510043949 | 62 | 300 | 5.0 | 5.0 | 0.00 | 0.40 | 0.02 | 78 | 1010.7 |
| 20260510043049 | 62 | 305 | 0.0 | 0.0 | 0.00 | 0.40 | 0.00 | 77 | 1010.1 |
| 20260510042149 | 62 | 313 | 2.0 | 2.0 | 0.00 | 0.42 | 0.00 | 76 | 1010.1 |
| 20260510041250 | 62 | 287 | 2.0 | 3.0 | 0.00 | 0.43 | 0.00 | 76 | 1009.8 |
| 20260510040350 | 62 | 282 | 1.0 | 2.0 | 0.00 | 0.46 | 0.00 | 76 | 1009.9 |
| 20260510035449 | 63 | 285 | 1.0 | 2.0 | 0.00 | 0.48 | 0.46 | 75 | 1009.9 |
| 20260510034550 | 63 | 267 | 2.0 | 2.0 | 0.00 | 0.50 | 0.46 | 75 | 1009.8 |
| 20260510033650 | 63 | 281 | 1.0 | 3.0 | 0.00 | 0.54 | 0.46 | 74 | 1009.8 |
| 20260510032750 | 63 | 273 | 2.0 | 3.0 | 0.00 | 0.56 | 0.46 | 74 | 1009.6 |
| 20260510031849 | 63 | 236 | 3.0 | 7.0 | 0.00 | 0.59 | 0.46 | 73 | 1009.5 |
| 20260510030950 | 63 | 262 | 2.0 | 3.0 | 0.00 | 0.61 | 0.46 | 73 | 1009.5 |
| 20260510030048 | 63 | 244 | 1.0 | 2.0 | 0.00 | 0.63 | 0.46 | 73 | 1009.5 |
| 20260510025149 | 63 | 274 | 1.0 | 3.0 | 0.00 | 0.65 | 0.46 | 73 | 1009.6 |
| 20260510024252 | 63 | 252 | 1.0 | 3.0 | 0.00 | 0.66 | 0.46 | 73 | 1009.6 |
| 20260510023351 | 63 | 234 | 2.0 | 3.0 | 0.00 | 0.68 | 0.46 | 73 | 1009.6 |
| 20260510022449 | 63 | 238 | 1.0 | 2.0 | 0.00 | 0.70 | 0.46 | 72 | 1009.5 |
| 20260510021550 | 63 | 241 | 1.0 | 3.0 | 0.00 | 0.74 | 0.46 | 71 | 1009.5 |
| 20260510020648 | 63 | 281 | 1.0 | 1.0 | 0.00 | 0.76 | 0.46 | 72 | 1009.3 |
| 20260510015749 | 64 | 254 | 0.0 | 0.0 | 0.00 | 0.78 | 0.46 | 70 | 1009.2 |
| 20260510014850 | 64 | 217 | 1.0 | 3.0 | 0.00 | 0.80 | 0.46 | 70 | 1009.1 |
| 20260510013949 | 64 | 277 | 2.0 | 3.0 | 0.00 | 0.81 | 0.46 | 69 | 1008.9 |
| 20260510013049 | 64 | 257 | 0.0 | 1.0 | 0.00 | 0.82 | 0.46 | 69 | 1008.8 |
| 20260510012149 | 65 | 242 | 1.0 | 2.0 | 0.00 | 0.83 | 0.46 | 68 | 1008.6 |
| 20260510011250 | 65 | 246 | 2.0 | 3.0 | 0.00 | 0.84 | 0.46 | 68 | 1008.5 |
| 20260510010348 | 65 | 245 | 1.0 | 3.0 | 0.00 | 0.85 | 0.46 | 68 | 1008.4 |
| 20260510005448 | 65 | 247 | 2.0 | 3.0 | 0.00 | 0.87 | 0.46 | 68 | 1008.2 |
| 20260510004550 | 65 | 244 | 1.0 | 3.0 | 0.00 | 0.88 | 0.46 | 68 | 1008.3 |
| 20260510003648 | 66 | 294 | 1.0 | 1.0 | 0.00 | 0.89 | 0.46 | 68 | 1008.1 |
| 20260510002749 | 67 | 279 | 1.0 | 2.0 | 0.00 | 0.89 | 0.46 | 65 | 1008.0 |
| 20260510001849 | 68 | 284 | 2.0 | 3.0 | 0.00 | 0.90 | 0.46 | 62 | 1007.8 |
| 20260510000948 | 69 | 273 | 2.0 | 3.0 | 0.00 | 0.91 | 0.46 | 60 | 1007.7 |
| 20260510000048 | 70 | 265 | 2.0 | 5.0 | 0.00 | 0.91 | 0.46 | 58 | 1007.6 |
| 20260509235150 | 70 | 274 | 5.0 | 8.0 | 0.00 | 0.92 | 0.46 | 57 | 1007.5 |
| 20260509234251 | 69 | 277 | 3.0 | 5.0 | 0.00 | 0.92 | 0.46 | 58 | 1007.5 |
| 20260509233349 | 70 | 277 | 3.0 | 3.0 | 0.00 | 0.93 | 0.46 | 55 | 1007.4 |
| 20260509232450 | 70 | 268 | 3.0 | 6.0 | 0.00 | 0.95 | 0.46 | 54 | 1007.2 |
| 20260509231558 | 70 | 257 | 6.0 | 10.0 | 0.00 | 0.95 | 0.46 | 55 | 1007.2 |
| 20260509231550 | 70 | 257 | 6.0 | 10.0 | 0.00 | 0.95 | 0.46 | 55 | 1007.2 |
| 20260509230649 | 71 | 281 | 5.0 | 8.0 | 0.00 | 0.96 | 0.46 | 53 | 1007.1 |
| 20260509225749 | 71 | 254 | 7.0 | 15.0 | 0.00 | 0.96 | 0.46 | 53 | 1007.1 |
| 20260509224849 | 71 | 259 | 5.0 | 8.0 | 0.00 | 0.96 | 0.46 | 55 | 1007.0 |
| 20260509223949 | 72 | 262 | 5.0 | 3.0 | 0.00 | 0.96 | 0.46 | 53 | 1007.0 |
| 20260509223048 | 72 | 268 | 5.0 | 6.0 | 0.00 | 0.96 | 0.46 | 52 | 1006.9 |
| 20260509222150 | 73 | 279 | 5.0 | 8.0 | 0.00 | 0.96 | 0.46 | 53 | 1006.9 |
| 20260509221249 | 73 | 278 | 3.0 | 12.0 | 0.00 | 0.96 | 0.46 | 56 | 1006.9 |
| 20260509220348 | 73 | 265 | 5.0 | 9.0 | 0.00 | 0.96 | 0.46 | 59 | 1006.9 |
| 20260509215450 | 72 | 246 | 5.0 | 13.0 | 0.00 | 0.96 | 0.46 | 59 | 1006.9 |
| 20260509214549 | 72 | 272 | 5.0 | 10.0 | 0.00 | 0.96 | 0.46 | 57 | 1006.8 |
| 20260509213649 | 72 | 251 | 7.0 | 14.0 | 0.00 | 0.96 | 0.46 | 57 | 1006.8 |
| 20260509212749 | 72 | 260 | 8.0 | 13.0 | 0.00 | 0.96 | 0.46 | 57 | 1006.8 |
| 20260509211849 | 72 | 252 | 7.0 | 17.0 | 0.00 | 0.96 | 0.46 | 58 | 1006.9 |
| 20260509210949 | 73 | 251 | 7.0 | 14.0 | 0.00 | 0.96 | 0.46 | 56 | 1007.0 |
| 20260509210049 | 73 | 266 | 5.0 | 9.0 | 0.00 | 0.96 | 0.46 | 61 | 1006.9 |
| 20260509205148 | 72 | 273 | 5.0 | 8.0 | 0.00 | 0.96 | 0.46 | 59 | 1007.0 |
| 20260509204724 | 72 | 249 | 7.0 | 9.0 | 0.00 | 0.96 | 0.46 | 57 | 1007.0 |
| 20260509203825 | 72 | 260 | 3.0 | 7.0 | 0.00 | 0.96 | 0.46 | 63 | 1007.1 |
| 20260509202924 | 72 | 238 | 9.0 | 14.0 | 0.00 | 0.96 | 0.46 | 62 | 1007.3 |
| 20260509202024 | 72 | 239 | 8.0 | 12.0 | 0.00 | 0.96 | 0.46 | 62 | 1007.4 |
| 20260509201126 | 71 | 264 | 5.0 | 7.0 | 0.00 | 0.96 | 0.46 | 63 | 1007.5 |
| 20260509200225 | 71 | 238 | 3.0 | 10.0 | 0.00 | 0.96 | 0.46 | 64 | 1007.6 |
| 20260509195325 | 71 | 266 | 5.0 | 9.0 | 0.00 | 0.96 | 0.46 | 65 | 1007.7 |
| 20260509194426 | 71 | 223 | 6.0 | 12.0 | 0.00 | 0.96 | 0.46 | 66 | 1007.8 |
| 20260509193524 | 71 | 266 | 3.0 | 7.0 | 0.00 | 0.96 | 0.46 | 67 | 1007.7 |
| 20260509192624 | 70 | 263 | 6.0 | 8.0 | 0.00 | 0.96 | 0.46 | 66 | 1007.8 |
| 20260509191726 | 70 | 228 | 7.0 | 20.0 | 0.00 | 0.96 | 0.46 | 68 | 1007.8 |
| 20260509190825 | 69 | 253 | 8.0 | 8.0 | 0.00 | 0.96 | 0.46 | 68 | 1007.8 |
| 20260509185925 | 69 | 206 | 8.0 | 12.0 | 0.00 | 0.96 | 0.46 | 67 | 1007.9 |
| 20260509185024 | 69 | 239 | 7.0 | 12.0 | 0.00 | 0.96 | 0.46 | 68 | 1008.0 |
| 20260509184127 | 69 | 264 | 5.0 | 8.0 | 0.00 | 0.96 | 0.46 | 68 | 1008.0 |
| 20260509183224 | 68 | 244 | 6.0 | 13.0 | 0.00 | 0.96 | 0.46 | 70 | 1007.9 |
| 20260509182325 | 68 | 259 | 7.0 | 13.0 | 0.00 | 0.96 | 0.46 | 70 | 1008.0 |
| 20260509181424 | 68 | 225 | 8.0 | 13.0 | 0.00 | 0.96 | 0.46 | 69 | 1008.0 |
| 20260509180525 | 68 | 239 | 8.0 | 12.0 | 0.00 | 0.96 | 0.46 | 69 | 1008.0 |
| 20260509175749 | 67 | 188 | 8.0 | 12.0 | 0.00 | 0.96 | 0.46 | 69 | 1008.0 |
| 20260509175624 | 67 | 188 | 8.0 | 12.0 | 0.00 | 0.96 | 0.46 | 69 | 1008.0 |
| 20260509174724 | 67 | 243 | 8.0 | 12.0 | 0.00 | 0.96 | 0.46 | 69 | 1008.0 |
| 20260509173826 | 67 | 247 | 5.0 | 12.0 | 0.00 | 0.96 | 0.46 | 71 | 1008.3 |
| 20260509172924 | 67 | 205 | 7.0 | 16.0 | 0.00 | 0.96 | 0.46 | 70 | 1008.4 |
| 20260509172024 | 67 | 205 | 7.0 | 12.0 | 0.00 | 0.96 | 0.46 | 71 | 1008.5 |
| 20260509171125 | 66 | 257 | 7.0 | 12.0 | 0.00 | 0.96 | 0.46 | 73 | 1008.4 |
| 20260509170225 | 66 | 245 | 6.0 | 13.0 | 0.00 | 0.96 | 0.46 | 72 | 1008.4 |
| 20260509164501 | 66 | 234 | 5.0 | 10.0 | 0.00 | 0.96 | 0.46 | 75 | 1008.4 |
| 20260509164426 | 66 | 234 | 5.0 | 10.0 | 0.00 | 0.96 | 0.46 | 75 | 1008.4 |
| 20260509163526 | 66 | 253 | 7.0 | 12.0 | 0.00 | 0.96 | 0.46 | 71 | 1008.5 |
| 20260509162624 | 65 | 245 | 8.0 | 10.0 | 0.00 | 0.96 | 0.46 | 72 | 1008.5 |
| 20260509161724 | 65 | 207 | 7.0 | 12.0 | 0.00 | 0.96 | 0.46 | 70 | 1008.3 |
| 20260509160825 | 65 | 205 | 6.0 | 10.0 | 0.00 | 0.96 | 0.46 | 72 | 1008.3 |
| 20260509155927 | 64 | 252 | 5.0 | 9.0 | 0.00 | 0.96 | 0.46 | 72 | 1008.3 |
| 20260509155025 | 64 | 217 | 7.0 | 10.0 | 0.00 | 0.96 | 0.46 | 73 | 1008.3 |
| 20260509154126 | 63 | 271 | 6.0 | 3.0 | 0.00 | 0.96 | 0.46 | 75 | 1008.4 |
| 20260509153225 | 63 | 250 | 6.0 | 12.0 | 0.00 | 0.96 | 0.46 | 75 | 1008.4 |
| 20260509152324 | 63 | 217 | 3.0 | 7.0 | 0.00 | 0.96 | 0.46 | 77 | 1008.4 |
| 20260509151425 | 63 | 250 | 3.0 | 8.0 | 0.00 | 0.96 | 0.46 | 78 | 1008.5 |
| 20260509150525 | 62 | 223 | 5.0 | 7.0 | 0.00 | 0.96 | 0.46 | 78 | 1008.4 |
| 20260509145624 | 62 | 233 | 5.0 | 7.0 | 0.00 | 0.96 | 0.46 | 78 | 1008.4 |
| 20260509144726 | 62 | 277 | 3.0 | 5.0 | 0.00 | 0.96 | 0.46 | 81 | 1008.2 |
| 20260509143856 | 61 | 215 | 5.0 | 5.0 | 0.00 | 0.96 | 0.46 | 82 | 1008.3 |
| 20260509143825 | 61 | 215 | 5.0 | 5.0 | 0.00 | 0.96 | 0.46 | 82 | 1008.3 |
| 20260509142925 | 60 | 238 | 5.0 | 7.0 | 0.00 | 0.96 | 0.46 | 82 | 1008.2 |
| 20260509141125 | 58 | 186 | 5.0 | 6.0 | 0.00 | 0.96 | 0.46 | 84 | 1008.1 |
| 20260509140226 | 58 | 234 | 3.0 | 8.0 | 0.00 | 0.96 | 0.46 | 86 | 1008.0 |
| 20260509135324 | 58 | 245 | 1.0 | 3.0 | 0.00 | 0.96 | 0.46 | 87 | 1008.0 |
| 20260509134456 | 57 | 218 | 2.0 | 6.0 | 0.00 | 0.96 | 0.46 | 87 | 1008.0 |
| 20260509134425 | 57 | 218 | 2.0 | 6.0 | 0.00 | 0.96 | 0.46 | 87 | 1008.0 |
| 20260509133555 | 57 | 180 | 5.0 | 6.0 | 0.00 | 0.96 | 0.46 | 88 | 1008.0 |
| 20260509133524 | 57 | 180 | 5.0 | 6.0 | 0.00 | 0.96 | 0.46 | 88 | 1008.0 |
| 20260509132624 | 56 | 218 | 1.0 | 3.0 | 0.00 | 0.96 | 0.46 | 91 | 1008.1 |
| 20260509131757 | 55 | 206 | 2.0 | 5.0 | 0.00 | 0.96 | 0.46 | 90 | 1008.2 |
| 20260509131724 | 55 | 206 | 2.0 | 5.0 | 0.00 | 0.96 | 0.46 | 90 | 1008.2 |
| 20260509130824 | 55 | 234 | 2.0 | 3.0 | 0.00 | 0.96 | 0.46 | 91 | 1008.3 |
| 20260509125925 | 54 | 230 | 3.0 | 5.0 | 0.00 | 0.96 | 0.46 | 91 | 1008.2 |
| 20260509124125 | 54 | 258 | 3.0 | 7.0 | 0.00 | 0.96 | 0.46 | 91 | 1008.4 |
| 20260509123225 | 54 | 234 | 5.0 | 6.0 | 0.00 | 0.96 | 0.46 | 91 | 1008.3 |
| 20260509122325 | 54 | 229 | 3.0 | 6.0 | 0.00 | 0.96 | 0.46 | 91 | 1008.4 |
| 20260509121425 | 53 | 237 | 3.0 | 7.0 | 0.00 | 0.96 | 0.46 | 92 | 1008.3 |
| 20260509115625 | 53 | 258 | 1.0 | 2.0 | 0.00 | 0.96 | 0.46 | 92 | 1008.3 |
| 20260509114756 | 53 | 233 | 0.0 | 2.0 | 0.00 | 0.96 | 0.46 | 92 | 1008.1 |
| 20260509114725 | 53 | 233 | 0.0 | 2.0 | 0.00 | 0.96 | 0.46 | 92 | 1008.1 |
| 20260509113855 | 52 | 155 | 0.0 | 1.0 | 0.00 | 0.96 | 0.46 | 92 | 1007.9 |
| 20260509113824 | 52 | 155 | 0.0 | 1.0 | 0.00 | 0.96 | 0.46 | 92 | 1007.9 |
| 20260509112925 | 52 | 290 | 0.0 | 0.0 | 0.00 | 0.96 | 0.46 | 91 | 1008.1 |
| 20260509112119 | 52 | 278 | 1.0 | 1.0 | 0.00 | 0.96 | 0.46 | 91 | 1008.2 |
| 20260509112026 | 52 | 278 | 1.0 | 1.0 | 0.00 | 0.96 | 0.46 | 91 | 1008.2 |
| 20260509111157 | 53 | 233 | 0.0 | 1.0 | 0.00 | 0.96 | 0.46 | 91 | 1008.1 |
| 20260509111124 | 53 | 233 | 0.0 | 1.0 | 0.00 | 0.96 | 0.46 | 91 | 1008.1 |
| 20260509110225 | 53 | 200 | 1.0 | 2.0 | 0.00 | 0.96 | 0.46 | 91 | 1008.0 |
| 20260509105324 | 53 | 231 | 0.0 | 0.0 | 0.01 | 0.96 | 0.46 | 91 | 1007.9 |
| 20260509104456 | 53 | 266 | 0.0 | 1.0 | 0.01 | 0.96 | 0.46 | 91 | 1008.1 |
| 20260509104424 | 53 | 266 | 0.0 | 1.0 | 0.01 | 0.96 | 0.46 | 91 | 1008.1 |
| 20260509103602 | 53 | 286 | 1.0 | 1.0 | 0.02 | 0.96 | 0.46 | 91 | 1008.1 |
| 20260509103527 | 53 | 286 | 1.0 | 1.0 | 0.02 | 0.96 | 0.46 | 91 | 1008.1 |
| 20260509102627 | 53 | 246 | 1.0 | 2.0 | 0.02 | 0.96 | 0.46 | 91 | 1007.9 |
| 20260509101724 | 53 | 292 | 3.0 | 6.0 | 0.02 | 0.96 | 0.46 | 91 | 1008.0 |
| 20260509100824 | 53 | 304 | 3.0 | 5.0 | 0.02 | 0.96 | 0.46 | 90 | 1007.9 |
| 20260509095925 | 53 | 143 | 10.0 | 14.0 | 0.02 | 0.96 | 0.46 | 91 | 1007.0 |
| 20260509095024 | 53 | 231 | 2.0 | 5.0 | 0.01 | 0.95 | 0.45 | 91 | 1008.0 |
| 20260509094124 | 53 | 205 | 2.0 | 5.0 | 0.00 | 0.94 | 0.44 | 91 | 1008.2 |
| 20260509093225 | 53 | 194 | 3.0 | 6.0 | 0.00 | 0.94 | 0.44 | 91 | 1008.1 |
| 20260509092324 | 53 | 223 | 2.0 | 5.0 | 0.00 | 0.94 | 0.44 | 90 | 1008.1 |
| 20260509091424 | 53 | 235 | 2.0 | 3.0 | 0.01 | 0.94 | 0.44 | 90 | 1008.1 |
| 20260509090524 | 53 | 193 | 2.0 | 3.0 | 0.01 | 0.94 | 0.44 | 90 | 1007.9 |
| 20260509084723 | 53 | 219 | 1.0 | 3.0 | 0.01 | 0.94 | 0.44 | 90 | 1008.2 |
| 20260509083824 | 53 | 224 | 1.0 | 3.0 | 0.01 | 0.94 | 0.44 | 90 | 1008.1 |
| 20260509082924 | 53 | 236 | 2.0 | 6.0 | 0.02 | 0.94 | 0.44 | 90 | 1008.1 |
| 20260509082055 | 53 | 177 | 2.0 | 6.0 | 0.03 | 0.93 | 0.43 | 90 | 1008.2 |
| 20260509082023 | 53 | 177 | 2.0 | 6.0 | 0.03 | 0.93 | 0.43 | 90 | 1008.2 |
| 20260509081125 | 53 | 220 | 5.0 | 6.0 | 0.03 | 0.93 | 0.43 | 90 | 1008.2 |
| 20260509080224 | 53 | 166 | 3.0 | 5.0 | 0.04 | 0.93 | 0.43 | 90 | 1008.1 |